Flag for Saudi Arabia Weather past 2 weeks in Qatif, Saudi Arabia

Now
99 °F

Clear.


Feels Like: 99 °F
Forecast: 78 / 107 °F
Wind: 7 mph from Northeast

Location: King Fahd International Airport

Current Time: Jul 3, 2015 at 7:27:06 PM

Latest Report: Jul 3, 2015 at 7:00 PM


Visibility: 10 mi

Pressure: 29.53 "Hg

Humidity: 29%

Dew point: 61 °F

Location of QatifLocation

Historic Weather in Qatif — Graph

°F

Qatif temperature yesterday

Maximum temperature yesterday: 109 °F (at 3:00 PM)
Minimum temperature yesterday: 86 °F (at 5:00 AM)
Average temperature yesterday: 97 °F

Past Weeks' High & Low Weather Summary

 TemperatureHumidityPressure
High115 °F (Jun 19, 2:00 PM)40% (Jul 3, 3:00 AM)29.65 "Hg (Jul 3, 3:00 AM)
Low81 °F (Jun 26, 5:00 AM)5% (Jun 28, 4:00 PM)29.45 "Hg (Jun 19, 4:00 PM)
Average96 °F16%29.54 "Hg
* Reported Jun 18 6:00 PM — Jul 3 6:00 PM, Qatif, Weather by CustomWeather, © 2015

Note: Actual official high and low records may vary slightly from our data, if they occured in-between our weather recording intervals... More about our weather records

Advertising

Qatif weather history for previous 24 hours

 ConditionsComfort  
Time TempWeatherWind HumidityBarometerVisibility
6:00 PM
Fri, Jul 3
104 °FSunny.9 mph19%29.50 "Hg10 mi
5:00 PM108 °FSunny.9 mph17%29.50 "Hg10 mi
4:00 PM108 °FSunny.10 mph18%29.50 "Hg10 mi
3:00 PM109 °FSunny.12 mph15%29.50 "Hg10 mi
2:00 PM108 °FSunny.14 mph16%29.53 "Hg10 mi
1:00 PM111 °FSunny.13 mph9%29.53 "Hg10 mi
12:00 PM111 °FSunny.15 mph8%29.53 "Hg10 mi
11:00 AM109 °FSunny.13 mph8%29.56 "Hg10 mi
10:00 AM106 °FSunny.15 mph9%29.56 "Hg10 mi
9:00 AM100 °FSunny.12 mph8%29.56 "Hg10 mi
8:00 AM95 °FSunny.13 mph9%29.56 "Hg10 mi
7:00 AM90 °FSunny.8 mph10%29.56 "Hg10 mi
6:00 AM86 °FSunny.10 mph11%29.56 "Hg10 mi
5:00 AM86 °FSunny.12 mph11%29.53 "Hg10 mi
4:00 AM86 °FClear.10 mph14%29.53 "Hg10 mi
3:00 AM82 °FClear.3 mph40%29.53 "Hg10 mi
2:00 AM84 °FClear.2 mph35%29.53 "Hg10 mi
1:00 AM86 °FClear.6 mph31%29.56 "Hg10 mi
12:00 AM86 °FClear.7 mph29%29.56 "Hg10 mi
11:00 PM
Thu, Jul 2
88 °FClear.6 mph24%29.59 "Hg10 mi
10:00 PM91 °FClear.5 mph24%29.56 "Hg10 mi
9:00 PM91 °FClear.6 mph23%29.56 "Hg10 mi
8:00 PM95 °FClear.3 mph22%29.56 "Hg10 mi
7:00 PM99 °FClear.8 mph15%29.53 "Hg4 mi
Weather by CustomWeather, © 2015

See weather overviewHow to use our weather pages